User: anonymous   Login
Location: Unspecified
(0.0000°N, 0.0000°E)
Time: 10:27:17
(UTC+00:00)
Language:

PLEIADES 1B - Orbit

View from above orbital plane
View from above orbital plane
View from above satellite
View from above satellite

Ground track
Ground track

The orbit data is extracted from the following two-line orbital elements,

1 39019U 12068A   15216.72319001  .00000112  00000-0  33926-4 0  9998
2 39019 098.1970 290.6874 0001219 088.7527 271.3820 14.58550539142234
Epoch (UTC): 04 August 2015 17:21:23
Eccentricity: 0.0001219
inclination: 98.1970°
perigee height: 697 km
apogee height: 699 km
right ascension of ascending node: 290.6874°
argument of perigee: 88.7527°
revolutions per day: 14.58550539
mean anomaly at epoch: 271.3820°
orbit number at epoch: 14223

The dashed part of the orbit path shows where the satellite is in the earth's shadow,  

DLR